Location: Navalespino
(40.5894°N, 4.2660°W)
Time: 12:51:53
(UTC+00:00)

Tiangong - Pass Details

Date: 18 April 2024
Orbit: 371 x 374 km, 41.5° (Epoch: 24 May)

Event Time Altitude Azimuth Distance (km) Brightness Sun altitude
Rises 21:14:47 0° 262° (W) 2,251 2.3 -23.4°
Reaches altitude 10° 21:16:52 10° 263° (W) 1,394 1.2 -23.7°
Enters shadow 21:18:11 23° 265° (W) 872 0.1 -23.8°
